Regional Weather Roundup
Issued by NWS

Home | Current Version | Previous Version | Text Only | Print | Product List | Glossary On
Versions: 1 2 3 4 5 6 7 8 9 10 11 12 13 14 15 16 17 18 19 20 21 22 23 24 25 26 27 28 29 30 31 32 33 34 35 36 37 38 39 40 41 42 43 44 45 46 47 48 49 50
000
ASUS45 KPSR 230110
RWRAZ

ARIZONA REGIONAL HOURLY WEATHER ROUNDUP
NATIONAL WEATHER SERVICE PHOENIX AZ
600 PM MST SAT NOV 22 2014

NOTE: FAIR INDICATES FEW OR NO CLOUDS BELOW 12,000 FEET WITH NO
SIGNIFICANT WEATHER AND/OR OBSTRUCTIONS TO VISIBILITY.

AZZ001>003-036-230200-
NORTHWEST ARIZONA

CITY           SKY/WX    TMP DP  RH WIND       PRES   REMARKS
BULLHEAD CITY  CLEAR     72  27  18 S15       29.88S
KINGMAN        CLEAR     56  22  26 SW9       29.96R
$$

AZZ004>008-015-016-018-230200-
NORTH CENTRAL ARIZONA

CITY           SKY/WX    TMP DP  RH WIND       PRES   REMARKS
GRAND CANYON   CLEAR     47  16  29 SW15      30.00F
PRESCOTT       CLEAR     51  17  26 SW10      30.01F
FLAGSTAFF      PTCLDY    43  14  31 VRB5      30.03S
PAYSON         CLEAR     50  19  29 VRB5      30.05F
$$

AZZ009>014-017-230200-
NORTHEAST ARIZONA

CITY           SKY/WX    TMP DP  RH WIND       PRES   REMARKS
WINSLOW        CLEAR     53  20  27 SW12      29.96F
SAINT JOHNS    MOCLDY    51  17  26 SW16      29.97F
SHOW LOW       PTCLDY    43  14  31 S12       30.07S
$$

AZZ023-230200-
GREATER PHOENIX AREA

CITY           SKY/WX    TMP DP  RH WIND       PRES   REMARKS
PHOENIX        PTCLDY    68  31  25 CALM      29.95F
BUCKEYE          N/A     61  30  31 SE6       29.94F
GLENDALE       PTCLDY    63  32  31 SE6       29.95F
LUKE AFB       CLEAR     66  30  26 S8        29.94F
DEER VALLEY    CLEAR     63  29  27 S5        29.94F
SCOTTSDALE     CLEAR     63  32  31 SE3       29.97F
MESA-FALCON    PTCLDY    63  28  27 SW7       29.96F
MESA-GATEWAY   PTCLDY    63  30  29 CALM      29.98F
CHANDLER       PTCLDY    63  32  31 CALM      29.96S
$$

AZZ027-028-230200-
SOUTHWEST MARICOPA COUNTY AND PINAL COUNTY

CITY           SKY/WX    TMP DP  RH WIND       PRES   REMARKS
CASA GRANDE    CLEAR     61  27  27 CALM      29.97F
$$

AZZ503-504-507>509-230200-
SOUTHEAST ARIZONA

CITY           SKY/WX    TMP DP  RH WIND       PRES   REMARKS
TUCSON         PTCLDY    64  25  22 NW6       30.03R
DAVIS-MONTHAN  PTCLDY    61  26  26 NW6       30.01R
RYAN FIELD       N/A    N/A N/A N/A NW6       30.02R
NOGALES        MOCLDY    55  28  35 N3        30.04R
SIERRA VISTA   MOCLDY    53  23  31 W12       30.05R
DOUGLAS        MOCLDY    58  24  27 W5        30.01S
SAFFORD        CLEAR     61  20  20 NW13      29.96R
$$

AZZ020-021-025-026-031-230200-
SOUTHWEST ARIZONA

CITY           SKY/WX    TMP DP  RH WIND       PRES   REMARKS
YUMA           MOCLDY    73  36  25 S7        29.91F
$$

CAZ031-033-041-043-047-048-061-230200-
SOUTHERN CALIFORNIA

CITY           SKY/WX    TMP DP  RH WIND       PRES   REMARKS
DOWNTOWN L.A.  PTCLDY    65  51  60 CALM      30.00F
L.A. AIRPORT   MOCLDY    64  53  67 SW5       30.01F
SAN DIEGO      MOCLDY    66  57  72 SW6       30.05R
BURBANK        PTCLDY    66  46  48 SE6       30.01S
ONTARIO        MOCLDY    67  48  50 SW8       30.01R
RIVERSIDE      PTCLDY    67  46  47 W7        30.01S
PALM SPRINGS   MOCLDY    70  38  31 E6        29.91F
EL CENTRO NAS  PTCLDY    75  40  28 SW13      29.88F
IMPERIAL       PTCLDY    76  37  24 S7        29.87F
BLYTHE         PTCLDY    69  38  32 SE9       29.90F
NEEDLES        PTCLDY    72  29  20 S8        29.89R
$$

NVZ020-UTZ003-230200-
SOUTHERN NEVADA-UTAH

CITY           SKY/WX    TMP DP  RH WIND       PRES   REMARKS
LAS VEGAS      PTCLDY    67  30  25 SW12      29.82S
SALT LAKE CITY CLOUDY    36  35  96 S7        29.85F WCI  30
$$

NMZ009-TXZ055-230200-
NEW MEXICO-WEST TEXAS

CITY           SKY/WX    TMP DP  RH WIND       PRES   REMARKS
ALBUQUERQUE    MOCLDY    52  15  23 W7        29.91R
EL PASO        PTCLDY    63  22  20 W15       29.90F
$$


........................KEY........................
SKY/WX - SKY CONDITION/WEATHER
TMP    - TEMPERATURE IN FAHRENHEIT
DP     - DEW POINT IN FAHRENHEIT
RH     - RELATIVE HUMIDITY IN PERCENT
WIND   - DIRECTION AND SPEED IN MILES PER HOUR (MPH)
VRB    - VARIABLE WIND DIRECTION
PRES   - MEAN SEA LEVEL PRESSURE IN INCHES OF MERCURY
         F - FALLING PRESSURE   R - RISING PRESSURE
         S - STEADY PRESSURE
VSB    - VISIBILITY IN MILES
HX     - HEAT INDEX IN FAHRENHEIT
WCI    - WIND CHILL INDEX IN FAHRENHEIT
TC     - TEMPERATURE IN CELSIUS WHICH IS ALSO KNOWN AS
         TEMPERATURE IN CENTIGRADE
AFB    - AIR FORCE BASE
         LUKE AFB IS LUKE AIR FORCE BASE
         DAVIS-MONTHAN IS DAVIS-MONTHAN AIR FORCE BASE
NAS    - NAVAL AIR STATION
         EL CENTRO NAS IS EL CENTRO NAVAL AIR STATION
N/A    - NOT AVAILABLE



USA.gov is the U.S. government's official web portal to all federal, state and local government web resources and services.